Tracking 22879 objects as of 20-Apr-2021
HD Live streaming from Space Station
objects crossing your sky now

ONEWEB-0068

Track ONEWEB-0068 now!
10-day predictions
ONEWEB-0068 is classified as:


NORAD ID: 45446
Int'l Code: 2020-020Y
Perigee: 1,225.4 km
Apogee: 1,227.9 km
Inclination: 87.9 °
Period: 109.8 minutes
Semi major axis: 7597 km
RCS: Unknown
Launch date: March 21, 2020
Source: United Kingdom (UK)
Launch site: TYURATAM MISSILE AND SPACE COMPLEX (TTMTR)
aabbcc
Your satellite tracking list
Your tracking list is empty




NASA's NSSDC Master Catalog

Two Line Element Set (TLE):
1 45446U 20020Y   21110.52695882 -.00000018  00000-0 -88336-4 0  9990
2 45446  87.8947  35.5600 0001673  63.5157 296.6142 13.10949681 55711
Source of the keplerian elements: AFSPC